SA3PJN-WX Weather Reports


Display with metric or nautical units.
time (UTC)temp
F
wind
direction
speed
MPH
gust
MPH
rain 1hr
in
rain 24hr
in
rain mn
in
humidity
%
barometer
mb
20260904040648 47 242 3.0 9.0 0.00 0.00 0.00 10 955.5
20260904040148 47 224 3.0 9.0 0.00 0.00 0.00 10 955.5
20260904035648 47 46 2.0 9.0 0.00 0.00 0.00 10 955.4
20260904035148 47 189 2.0 8.0 0.00 0.00 0.00 10 955.5
20260904034648 47 218 1.0 7.0 0.00 0.00 0.00 10 955.6
20260904034148 47 208 1.0 7.0 0.00 0.00 0.00 10 955.6
20260904033648 46 87 1.0 5.0 0.00 0.00 0.00 10 955.5
20260904033147 46 98 2.0 7.0 0.00 0.00 0.00 10 955.5
20260904032647 46 109 2.0 8.0 0.00 0.00 0.00 10 955.5
20260904032147 46 268 2.0 8.0 0.00 0.00 0.00 10 955.5
20260904031647 46 62 1.0 8.0 0.00 0.00 0.00 10 955.5
20260904031147 46 161 2.0 9.0 0.00 0.00 0.00 10 955.5
20260904030647 46 118 2.0 9.0 0.00 0.00 0.00 10 955.7
20260904030147 47 72 1.0 6.0 0.00 0.00 0.00 10 955.7
20260904025647 47 98 1.0 6.0 0.00 0.00 0.00 10 955.7
20260904025147 46 204 2.0 6.0 0.00 0.00 0.00 10 955.7
20260904024647 46 110 2.0 5.0 0.00 0.00 0.00 10 955.7
20260904024147 46 176 1.0 4.0 0.00 0.00 0.00 10 955.7
20260904023647 46 57 1.0 4.0 0.00 0.00 0.00 10 955.8
20260904023147 46 46 1.0 5.0 0.00 0.00 0.00 10 955.8
20260904022647 46 50 1.0 5.0 0.00 0.00 0.00 10 955.9
20260904022146 46 34 1.0 4.0 0.00 0.00 0.00 10 955.7
20260904021646 46 96 1.0 4.0 0.00 0.00 0.00 10 955.8
20260904021146 46 278 1.0 5.0 0.00 0.00 0.00 10 955.8
20260904020647 46 340 1.0 5.0 0.00 0.00 0.00 10 955.9
20260904020147 46 54 2.0 6.0 0.00 0.00 0.00 10 955.9
20260904015647 46 74 2.0 6.0 0.00 0.00 0.00 10 955.9
20260904015146 47 273 2.0 6.0 0.00 0.00 0.00 10 956.0
20260904014646 47 80 2.0 6.0 0.00 0.00 0.00 10 956.0
20260904014146 47 89 1.0 7.0 0.00 0.00 0.00 10 956.2
20260904013646 47 25 1.0 7.0 0.00 0.00 0.00 10 956.2
20260904013146 47 199 1.0 5.0 0.00 0.00 0.00 10 956.1
20260904012646 47 59 1.0 5.0 0.00 0.00 0.00 10 956.2
20260904012146 46 101 1.0 5.0 0.00 0.00 0.00 10 956.3
20260904011646 46 63 1.0 5.0 0.00 0.00 0.00 10 956.3
20260904011146 46 62 1.0 5.0 0.00 0.00 0.00 10 956.2
20260904010646 46 184 1.0 5.0 0.00 0.00 0.00 10 956.3
20260904010146 46 77 1.0 8.0 0.00 0.00 0.00 10 956.3
20260904005646 46 8 2.0 8.0 0.00 0.00 0.00 10 956.3
20260904005146 46 195 2.0 7.0 0.00 0.00 0.00 10 956.3
20260904004646 47 181 2.0 7.0 0.00 0.00 0.00 10 956.2
20260904004146 47 35 2.0 7.0 0.00 0.00 0.00 10 956.4
20260904003646 47 121 2.0 8.0 0.00 0.00 0.00 10 956.4
20260904003145 47 136 2.0 8.0 0.00 0.00 0.00 10 956.5
20260904002645 47 136 2.0 5.0 0.00 0.00 0.00 10 956.5
20260904002145 47 140 2.0 7.0 0.00 0.00 0.00 10 956.4
20260904001645 47 31 2.0 7.0 0.00 0.00 0.00 10 956.5
20260904001145 47 52 2.0 11.0 0.00 0.00 0.00 10 956.4
20260904000645 47 103 2.0 11.0 0.00 0.00 0.00 10 956.5
20260904000145 47 54 2.0 8.0 0.00 0.00 0.00 10 956.5
20260903235645 47 86 2.0 7.0 0.00 0.00 0.00 10 956.5
20260903235145 47 108 2.0 7.0 0.00 0.00 0.00 10 956.4
20260903234645 47 125 2.0 7.0 0.00 0.00 0.00 10 956.5
20260903234145 47 72 3.0 11.0 0.00 0.00 0.00 10 956.6
20260903233645 48 148 3.0 11.0 0.00 0.00 0.00 10 956.6
20260903233145 48 182 3.0 9.0 0.00 0.00 0.00 10 956.7
20260903232644 48 226 2.0 8.0 0.00 0.00 0.00 10 956.7
20260903232144 48 185 2.0 8.0 0.00 0.00 0.00 10 956.6
20260903231644 48 27 2.0 8.0 0.00 0.00 0.00 10 956.7
20260903231144 48 53 2.0 8.0 0.00 0.00 0.00 10 956.8
20260903230644 48 95 2.0 8.0 0.00 0.00 0.00 10 956.8
20260903230144 48 189 1.0 5.0 0.00 0.00 0.00 10 956.8
20260903225644 48 148 1.0 4.0 0.00 0.00 0.00 10 956.8
20260903225144 48 95 1.0 4.0 0.00 0.00 0.00 10 957.0
20260903224644 49 154 1.0 4.0 0.00 0.00 0.00 10 956.9
20260903224144 48 158 1.0 4.0 0.00 0.00 0.00 10 957.0
20260903223644 48 157 1.0 5.0 0.00 0.00 0.00 10 957.0
20260903223144 48 126 2.0 6.0 0.00 0.00 0.00 10 956.9
20260903222644 48 154 2.0 6.0 0.00 0.00 0.00 10 956.9
20260903222144 48 107 1.0 6.0 0.00 0.00 0.00 10 956.9
20260903221644 48 79 1.0 6.0 0.00 0.00 0.00 10 956.9
20260903221144 48 56 1.0 7.0 0.00 0.00 0.00 10 957.0
20260903220644 48 119 2.0 9.0 0.00 0.00 0.00 10 957.1
20260903220144 48 83 2.0 9.0 0.00 0.00 0.00 10 957.0
20260903215643 48 85 2.0 8.0 0.00 0.00 0.00 10 957.0
20260903215143 48 99 2.0 8.0 0.00 0.00 0.00 10 956.8
20260903214643 49 205 3.0 9.0 0.00 0.00 0.00 10 956.8
20260903214143 49 152 3.0 9.0 0.00 0.00 0.00 10 956.7
20260903213643 49 210 2.0 9.0 0.00 0.00 0.00 10 957.0
20260903213143 49 220 2.0 9.0 0.00 0.00 0.00 10 956.9
20260903212643 49 220 2.0 8.0 0.00 0.00 0.00 10 956.9
20260903212143 49 95 2.0 8.0 0.00 0.00 0.00 10 956.9
20260903211643 49 70 2.0 9.0 0.00 0.00 0.00 10 956.8
20260903211143 49 131 2.0 9.0 0.00 0.00 0.00 10 956.8
20260903210643 49 87 2.0 7.0 0.00 0.00 0.00 10 956.8
20260903210143 49 48 2.0 6.0 0.00 0.00 0.00 10 956.9
20260903205643 49 122 2.0 6.0 0.00 0.00 0.00 10 957.0
20260903205143 49 81 2.0 6.0 0.00 0.00 0.00 10 956.9
20260903204642 49 110 2.0 8.0 0.00 0.00 0.00 10 956.9
20260903204142 49 137 2.0 9.0 0.00 0.00 0.00 10 957.0
20260903203642 49 92 2.0 9.0 0.00 0.00 0.00 10 956.9
20260903203142 49 69 2.0 8.0 0.00 0.00 0.00 10 957.0
20260903202642 49 164 3.0 8.0 0.00 0.00 0.00 10 957.0
20260903202142 49 120 3.0 9.0 0.00 0.00 0.00 10 956.9
20260903201642 49 57 2.0 11.0 0.00 0.00 0.00 10 956.9
20260903201142 49 153 2.0 11.0 0.00 0.00 0.00 10 957.0
20260903200642 49 55 2.0 8.0 0.00 0.00 0.00 10 956.9
20260903200142 49 143 2.0 7.0 0.00 0.00 0.00 10 957.0
20260903195642 49 104 2.0 7.0 0.00 0.00 0.00 10 957.0
20260903195142 49 144 2.0 8.0 0.00 0.00 0.00 10 956.9
20260903194642 49 57 2.0 9.0 0.00 0.00 0.00 10 957.1
20260903194142 49 89 2.0 9.0 0.00 0.00 0.00 10 957.1
20260903193642 49 85 1.0 9.0 0.00 0.00 0.00 10 957.1
20260903193142 49 125 1.0 5.0 0.00 0.00 0.00 10 957.1
20260903192612 50 71 1.0 7.0 0.00 0.00 0.00 10 957.0
20260903192112 49 108 2.0 8.0 0.00 0.00 0.00 10 957.0
20260903191611 50 162 3.0 9.0 0.00 0.00 0.00 10 957.0
20260903191111 50 9 3.0 9.0 0.00 0.00 0.00 10 957.0
20260903190611 50 237 3.0 9.0 0.00 0.00 0.00 10 957.1
20260903190111 50 130 3.0 9.0 0.00 0.00 0.00 10 957.1
20260903185611 50 215 3.0 9.0 0.00 0.00 0.00 10 957.1
20260903185111 50 139 3.0 9.0 0.00 0.00 0.00 10 957.1
20260903184611 50 79 3.0 11.0 0.00 0.00 0.00 10 957.1
20260903184111 50 100 3.0 11.0 0.00 0.00 0.00 10 957.1
20260903183611 50 164 2.0 11.0 0.00 0.00 0.00 10 957.1
20260903183111 50 37 2.0 11.0 0.00 0.00 0.00 10 957.1
20260903182611 50 128 2.0 8.0 0.00 0.00 0.00 10 956.9
20260903182111 51 178 2.0 8.0 0.00 0.00 0.00 10 957.1
20260903181611 51 91 2.0 7.0 0.00 0.00 0.00 10 957.1
20260903181110 51 86 2.0 7.0 0.00 0.00 0.00 10 957.0
20260903180610 51 119 2.0 10.0 0.00 0.00 0.00 10 957.1
20260903180110 50 132 3.0 10.0 0.00 0.00 0.00 10 957.1
20260903175610 51 103 3.0 10.0 0.00 0.00 0.00 10 957.1
20260903175110 50 204 3.0 9.0 0.00 0.00 0.00 10 957.1
20260903174610 51 112 2.0 7.0 0.00 0.00 0.00 10 957.1
20260903174110 50 137 3.0 8.0 0.00 0.00 0.00 10 957.1
20260903173610 51 80 3.0 11.0 0.00 0.00 0.00 10 957.0
20260903173110 51 101 2.0 11.0 0.00 0.00 0.00 10 957.0
20260903172610 51 261 2.0 9.0 0.00 0.00 0.00 10 957.1
20260903172110 51 49 2.0 9.0 0.00 0.00 0.00 10 957.1
20260903171610 51 141 2.0 9.0 0.00 0.00 0.00 10 957.0
20260903171110 51 70 2.0 7.0 0.00 0.00 0.00 10 957.0
20260903170610 51 187 2.0 7.0 0.00 0.00 0.00 99 957.0
20260903170110 50 23 2.0 6.0 0.00 0.00 0.00 99 957.0
20260903165610 51 135 3.0 9.0 0.00 0.00 0.00 99 957.0
20260903165110 51 273 3.0 9.0 0.00 0.00 0.00 99 957.1
20260903164609 51 240 3.0 10.0 0.00 0.00 0.00 98 957.0
20260903164109 51 108 3.0 10.0 0.00 0.00 0.00 98 957.1
20260903163609 51 100 3.0 9.0 0.00 0.00 0.00 98 957.0
20260903163109 51 84 3.0 11.0 0.00 0.00 0.00 98 956.9
20260903162609 51 114 3.0 11.0 0.00 0.00 0.00 98 957.0
20260903162109 51 116 3.0 11.0 0.00 0.00 0.00 97 957.0
20260903161609 51 178 3.0 11.0 0.00 0.00 0.00 96 957.0
20260903161109 51 157 2.0 11.0 0.00 0.00 0.00 96 957.0
20260903160609 51 91 2.0 11.0 0.00 0.00 0.00 97 957.0
20260903160039 51 115 3.0 9.0 0.00 0.00 0.00 97 957.1
20260903155539 51 115 3.0 9.0 0.00 0.00 0.00 97 957.1
20260903155039 51 107 3.0 11.0 0.00 0.00 0.00 97 957.2
20260903154539 51 179 3.0 11.0 0.00 0.00 0.00 96 957.1
20260903154039 51 143 3.0 9.0 0.00 0.00 0.00 95 957.1
20260903153539 51 107 3.0 9.0 0.00 0.00 0.00 95 957.2
20260903153039 51 181 3.0 9.0 0.00 0.00 0.00 95 957.1
20260903152538 51 2 2.0 11.0 0.00 0.00 0.00 95 957.2
20260903152038 51 110 3.0 11.0 0.00 0.00 0.00 97 957.2
20260903151538 51 110 3.0 12.0 0.00 0.00 0.00 97 957.3
20260903151038 51 150 3.0 12.0 0.00 0.00 0.00 97 957.3
20260903150538 51 75 3.0 11.0 0.00 0.00 0.00 97 957.2
20260903150038 51 91 3.0 8.0 0.00 0.00 0.00 97 957.2
20260903145538 51 124 3.0 9.0 0.00 0.00 0.00 97 957.2
20260903145038 50 188 2.0 9.0 0.00 0.00 0.00 97 957.3
20260903144538 51 130 2.0 8.0 0.00 0.00 0.00 96 957.3
20260903144038 50 65 3.0 9.0 0.00 0.00 0.00 95 957.4
20260903143538 50 147 3.0 10.0 0.00 0.00 0.00 94 957.4
20260903143038 50 132 3.0 12.0 0.00 0.00 0.00 94 957.5
20260903142538 50 112 3.0 12.0 0.00 0.00 0.00 93 957.5
20260903142037 50 185 3.0 11.0 0.00 0.00 0.00 92 957.6
20260903141537 50 154 3.0 10.0 0.00 0.00 0.00 93 957.6
20260903141037 50 136 3.0 13.0 0.00 0.00 0.00 91 957.5
20260903140537 50 131 3.0 13.0 0.00 0.00 0.00 91 957.6
20260903140037 50 132 3.0 12.0 0.00 0.00 0.00 89 957.6
20260903135537 50 130 3.0 9.0 0.00 0.00 0.00 89 957.7
20260903135037 50 82 3.0 11.0 0.00 0.00 0.00 89 957.7
20260903134537 50 109 3.0 11.0 0.00 0.00 0.00 90 957.7
20260903134038 50 108 3.0 12.0 0.00 0.00 0.00 90 957.8
20260903133537 51 154 3.0 13.0 0.00 0.00 0.00 88 957.7
20260903133037 51 138 3.0 13.0 0.00 0.00 0.00 86 957.6
20260903132537 51 142 3.0 11.0 0.00 0.00 0.00 87 957.7
20260903132037 51 116 4.0 11.0 0.00 0.00 0.00 86 957.8
20260903131537 51 171 4.0 18.0 0.00 0.00 0.00 85 957.7
20260903131037 51 143 4.0 18.0 0.00 0.00 0.00 81 957.7
20260903130537 51 145 4.0 13.0 0.00 0.00 0.00 82 957.7
20260903130037 51 68 4.0 16.0 0.00 0.00 0.00 84 957.8
20260903125537 52 121 4.0 16.0 0.00 0.00 0.00 84 957.6
20260903125037 52 134 4.0 11.0 0.00 0.00 0.00 82 958.0
20260903124536 53 143 3.0 11.0 0.00 0.00 0.00 81 957.7
20260903124036 53 165 3.0 15.0 0.00 0.00 0.00 81 957.7
20260903123536 53 89 4.0 16.0 0.00 0.00 0.00 82 957.7
20260903123036 53 109 4.0 16.0 0.00 0.00 0.00 82 957.8
20260903122536 53 101 4.0 16.0 0.00 0.00 0.00 80 957.8
20260903122036 53 114 4.0 14.0 0.00 0.00 0.00 80 957.9
20260903121536 53 106 4.0 14.0 0.00 0.00 0.00 82 957.8
20260903121036 52 61 4.0 21.0 0.00 0.00 0.00 87 957.8
20260903120536 52 86 5.0 21.0 0.00 0.00 0.00 84 957.8
20260903120036 52 336 5.0 21.0 0.00 0.00 0.00 80 957.6
20260903115536 53 146 5.0 16.0 0.00 0.00 0.00 82 957.8
20260903115036 52 196 5.0 16.0 0.00 0.00 0.00 79 957.8
20260903114536 52 88 5.0 13.0 0.00 0.00 0.00 81 957.7
20260903114036 52 112 4.0 13.0 0.00 0.00 0.00 81 957.8
20260903113536 52 127 5.0 14.0 0.00 0.00 0.00 79 957.7
20260903113035 52 99 5.0 24.0 0.00 0.00 0.00 78 957.9
20260903112535 52 41 5.0 24.0 0.00 0.00 0.00 76 957.8
20260903112035 53 124 5.0 15.0 0.00 0.00 0.00 76 957.7
20260903111535 54 105 5.0 15.0 0.00 0.00 0.00 74 957.7
20260903111035 53 152 5.0 15.0 0.00 0.00 0.00 78 957.6
20260903110535 54 89 5.0 14.0 0.00 0.00 0.00 80 957.7
20260903110035 53 66 6.0 20.0 0.00 0.00 0.00 82 957.7
20260903105535 52 175 6.0 20.0 0.00 0.00 0.00 82 957.7
20260903105035 53 203 5.0 20.0 0.00 0.00 0.00 81 957.5
20260903104535 53 204 6.0 23.0 0.00 0.00 0.00 80 957.6
20260903104035 53 130 7.0 23.0 0.00 0.00 0.00 80 957.6
20260903103535 53 220 6.0 23.0 0.00 0.00 0.00 78 957.6
20260903103035 55 202 5.0 17.0 0.00 0.00 0.00 76 957.7
20260903102535 56 127 5.0 25.0 0.00 0.00 0.00 73 957.6
20260903102035 56 105 5.0 25.0 0.00 0.00 0.00 71 957.4
20260903101534 56 63 5.0 15.0 0.00 0.00 0.00 70 957.4
20260903101034 58 108 4.0 14.0 0.00 0.00 0.00 67 957.4
20260903100534 60 160 4.0 12.0 0.00 0.00 0.00 66 957.4
20260903100034 60 128 3.0 12.0 0.00 0.00 0.00 68 957.4
20260903095534 60 105 3.0 12.0 0.00 0.00 0.00 73 957.6
20260903095034 57 131 3.0 12.0 0.00 0.00 0.00 75 957.6
20260903094534 56 123 3.0 17.0 0.00 0.00 0.00 76 957.6
20260903094034 54 58 4.0 17.0 0.00 0.00 0.00 77 957.6
20260903093534 54 89 4.0 16.0 0.00 0.00 0.00 78 957.6
20260903093034 55 51 4.0 16.0 0.00 0.00 0.00 80 957.6
20260903092534 55 121 4.0 13.0 0.00 0.00 0.00 77 957.5
20260903092034 55 115 5.0 15.0 0.00 0.00 0.00 78 957.5
20260903091534 54 102 5.0 15.0 0.00 0.00 0.00 77 957.5
20260903091033 55 190 4.0 14.0 0.00 0.00 0.00 78 957.6
20260903090533 54 324 4.0 12.0 0.00 0.00 0.00 79 957.6
20260903090033 53 221 4.0 12.0 0.00 0.00 0.00 80 957.5
20260903085533 53 161 4.0 14.0 0.00 0.00 0.00 80 957.5
20260903085033 54 116 4.0 14.0 0.00 0.00 0.00 80 957.4
20260903084533 55 244 4.0 15.0 0.00 0.00 0.00 79 957.6
20260903084033 55 116 5.0 18.0 0.00 0.00 0.00 82 957.5
20260903083533 53 106 5.0 18.0 0.00 0.00 0.00 82 957.4
20260903083033 54 136 4.0 14.0 0.00 0.00 0.00 82 957.4
20260903082533 53 163 4.0 16.0 0.00 0.00 0.00 82 957.4
20260903082033 53 208 4.0 16.0 0.00 0.00 0.00 85 957.5
20260903081533 52 177 4.0 16.0 0.00 0.00 0.00 85 957.4
20260903081033 52 127 4.0 11.0 0.00 0.00 0.00 85 957.4
20260903080533 52 82 4.0 11.0 0.00 0.00 0.00 85 957.4
20260903080033 52 70 4.0 11.0 0.00 0.00 0.00 86 957.5
20260903075533 52 100 3.0 14.0 0.00 0.00 0.00 86 957.4
20260903075033 52 77 3.0 14.0 0.00 0.00 0.00 86 957.4
20260903074533 53 210 3.0 10.0 0.00 0.00 0.00 86 957.5
20260903074032 52 168 3.0 11.0 0.00 0.00 0.00 87 957.4
20260903073532 53 152 3.0 11.0 0.00 0.00 0.00 86 957.4
20260903073032 53 137 3.0 8.0 0.00 0.00 0.00 88 957.4
20260903072532 51 95 3.0 10.0 0.00 0.00 0.00 91 957.5
20260903072032 50 110 3.0 10.0 0.00 0.00 0.00 92 957.6
20260903071532 50 89 3.0 9.0 0.00 0.00 0.00 91 957.6
20260903071032 50 104 3.0 9.0 0.00 0.00 0.00 91 957.6
20260903070532 50 114 3.0 9.0 0.00 0.00 0.00 90 957.6
20260903070032 50 78 2.0 8.0 0.00 0.00 0.00 93 957.7
20260903065532 50 223 2.0 11.0 0.00 0.00 0.00 92 957.7
20260903065032 49 123 2.0 11.0 0.00 0.00 0.00 94 957.6
20260903064532 49 91 3.0 11.0 0.00 0.00 0.00 94 957.6
20260903064032 49 50 3.0 11.0 0.00 0.00 0.00 94 957.6
20260903063532 49 169 3.0 12.0 0.00 0.00 0.00 95 957.6
20260903063031 49 143 3.0 12.0 0.00 0.00 0.00 95 957.5
20260903062531 48 107 3.0 10.0 0.00 0.00 0.00 95 957.5
20260903062031 48 170 3.0 11.0 0.00 0.00 0.00 95 957.5
20260903061531 49 107 3.0 11.0 0.00 0.00 0.00 95 957.6
20260903061031 48 111 3.0 12.0 0.00 0.00 0.00 96 957.5
20260903060531 49 83 4.0 13.0 0.00 0.00 0.00 96 957.6
20260903060031 49 120 4.0 13.0 0.00 0.00 0.00 96 957.6
20260903055531 49 99 4.0 13.0 0.00 0.00 0.00 95 957.5
20260903055031 50 107 3.0 13.0 0.00 0.00 0.00 94 957.4
20260903054531 49 148 3.0 9.0 0.00 0.00 0.00 95 957.5
20260903054031 49 44 3.0 9.0 0.00 0.00 0.00 96 957.5
20260903053531 49 107 3.0 12.0 0.00 0.00 0.00 95 957.4
20260903053031 48 104 3.0 12.0 0.00 0.00 0.00 94 957.4
20260903052531 48 135 3.0 12.0 0.00 0.00 0.00 93 957.4
20260903052031 48 109 3.0 13.0 0.00 0.00 0.00 92 957.2
20260903051530 48 114 3.0 13.0 0.00 0.00 0.00 90 957.2
20260903051030 50 132 3.0 13.0 0.00 0.00 0.00 88 957.2
20260903050530 52 104 2.0 8.0 0.00 0.00 0.00 87 957.4
20260903050030 51 119 2.0 7.0 0.00 0.00 0.00 89 957.6
20260903045530 48 127 2.0 7.0 0.00 0.00 0.00 93 957.5
20260903045030 49 113 2.0 8.0 0.00 0.00 0.00 92 957.4
20260903044530 49 123 2.0 8.0 0.00 0.00 0.00 92 957.4
20260903044030 48 155 2.0 10.0 0.00 0.00 0.00 96 957.3
20260903043530 48 95 2.0 10.0 0.00 0.00 0.00 97 957.4
20260903043030 46 112 3.0 8.0 0.00 0.00 0.00 99 957.4
20260903042530 45 223 3.0 8.0 0.00 0.00 0.00 99 957.2
20260903042030 45 139 2.0 7.0 0.00 0.00 0.00 98 957.2
20260903041530 44 38 2.0 7.0 0.00 0.00 0.00 98 957.3
20260903041029 44 71 2.0 8.0 0.00 0.00 0.00 99 957.2